TimeCDT,TemperatureF,Dew PointF,Humidity,Sea Level PressureIn,VisibilityMPH,Wind Direction,Wind SpeedMPH,Gust SpeedMPH,PrecipitationIn,Events,Conditions,WindDirDegrees,DateUTC
12:15 AM,75.2,60.8,61,30.03,10.0,Calm,Calm,-,N/A,,Clear,0,2013-06-16 05:15:00
12:36 AM,73.4,60.8,65,30.02,10.0,SSE,3.5,-,N/A,,Clear,160,2013-06-16 05:36:00
12:55 AM,73.4,60.8,65,30.02,10.0,Calm,Calm,-,N/A,,Clear,0,2013-06-16 05:55:00
1:15 AM,73.4,60.8,65,30.03,10.0,Calm,Calm,-,N/A,,Clear,0,2013-06-16 06:15:00
1:35 AM,71.6,60.8,69,30.02,10.0,Calm,Calm,-,N/A,,Clear,0,2013-06-16 06:35:00
1:55 AM,71.6,60.8,69,30.02,10.0,Calm,Calm,-,N/A,,Clear,0,2013-06-16 06:55:00
2:15 AM,71.6,60.8,69,30.01,10.0,Calm,Calm,-,N/A,,Clear,0,2013-06-16 07:15:00
2:35 AM,71.6,60.8,69,30.01,10.0,Calm,Calm,-,N/A,,Clear,0,2013-06-16 07:35:00
2:55 AM,71.6,60.8,69,30.00,10.0,Calm,Calm,-,N/A,,Clear,0,2013-06-16 07:55:00
3:15 AM,71.6,60.8,69,30.00,10.0,SSE,3.5,-,N/A,,Clear,150,2013-06-16 08:15:00
3:35 AM,71.6,60.8,69,30.00,10.0,Calm,Calm,-,N/A,,Clear,0,2013-06-16 08:35:00
3:56 AM,69.8,60.8,73,30.00,10.0,Calm,Calm,-,N/A,,Clear,0,2013-06-16 08:56:00
4:15 AM,69.8,60.8,73,30.00,10.0,Calm,Calm,-,N/A,,Clear,0,2013-06-16 09:15:00
4:35 AM,69.8,59.0,68,30.00,10.0,Calm,Calm,-,N/A,,Clear,0,2013-06-16 09:35:00
4:55 AM,69.8,59.0,68,30.00,10.0,Calm,Calm,-,N/A,,Clear,0,2013-06-16 09:55:00
5:15 AM,69.8,59.0,68,30.01,10.0,Calm,Calm,-,N/A,,Clear,0,2013-06-16 10:15:00
5:35 AM,69.8,59.0,68,30.02,10.0,Calm,Calm,-,N/A,,Clear,0,2013-06-16 10:35:00
5:55 AM,69.8,60.8,73,30.02,10.0,Calm,Calm,-,N/A,,Clear,0,2013-06-16 10:55:00
6:15 AM,69.8,60.8,73,30.02,10.0,Calm,Calm,-,N/A,,Clear,0,2013-06-16 11:15:00
6:35 AM,69.8,60.8,73,30.02,10.0,SE,3.5,-,N/A,,Clear,140,2013-06-16 11:35:00
6:55 AM,71.6,60.8,69,30.03,10.0,SSE,3.5,-,N/A,,Clear,150,2013-06-16 11:55:00
7:15 AM,71.6,60.8,69,30.04,10.0,SSE,4.6,-,N/A,,Clear,160,2013-06-16 12:15:00
7:35 AM,71.6,60.8,69,30.04,10.0,SSE,4.6,-,N/A,,Clear,160,2013-06-16 12:35:00
7:55 AM,73.4,60.8,65,30.05,6.0,SSE,4.6,-,N/A,,Clear,160,2013-06-16 12:55:00
8:15 AM,73.4,60.8,65,30.05,10.0,SSE,5.8,-,N/A,,Clear,160,2013-06-16 13:15:00
8:36 AM,75.2,62.6,65,30.05,10.0,South,3.5,-,N/A,,Clear,180,2013-06-16 13:36:00
8:55 AM,75.2,62.6,65,30.05,10.0,South,3.5,-,N/A,,Clear,180,2013-06-16 13:55:00
9:15 AM,77.0,62.6,61,30.04,10.0,South,4.6,-,N/A,,Clear,180,2013-06-16 14:15:00
9:35 AM,78.8,62.6,57,30.04,10.0,South,4.6,-,N/A,,Clear,170,2013-06-16 14:35:00
9:55 AM,78.8,62.6,57,30.03,10.0,South,3.5,-,N/A,,Clear,170,2013-06-16 14:55:00
10:15 AM,78.8,64.4,61,30.03,10.0,South,3.5,-,N/A,,Clear,180,2013-06-16 15:15:00
10:35 AM,80.6,64.4,58,30.03,10.0,SSE,3.5,-,N/A,,Clear,160,2013-06-16 15:35:00
10:55 AM,80.6,64.4,58,30.02,10.0,SSE,4.6,-,N/A,,Clear,150,2013-06-16 15:55:00
11:15 AM,84.2,64.4,51,30.02,10.0,South,3.5,-,N/A,,Clear,170,2013-06-16 16:15:00
11:35 AM,86.0,64.4,48,30.02,10.0,South,6.9,-,N/A,,Clear,180,2013-06-16 16:35:00
11:55 AM,87.8,64.4,46,30.02,10.0,WSW,9.2,-,N/A,,Clear,240,2013-06-16 16:55:00
12:16 PM,87.8,64.4,46,30.02,10.0,WSW,6.9,-,N/A,,Clear,240,2013-06-16 17:16:00
12:35 PM,87.8,64.4,46,30.01,10.0,WSW,12.7,19.6,N/A,,Clear,250,2013-06-16 17:35:00
12:55 PM,87.8,64.4,46,30.01,10.0,SW,11.5,-,N/A,,Clear,230,2013-06-16 17:55:00
1:15 PM,89.6,64.4,43,30.00,10.0,SSW,8.1,-,N/A,,Partly Cloudy,200,2013-06-16 18:15:00
1:35 PM,87.8,64.4,46,30.00,10.0,SSW,8.1,-,N/A,,Clear,210,2013-06-16 18:35:00
1:55 PM,87.8,64.4,46,30.00,10.0,SW,9.2,-,N/A,,Partly Cloudy,230,2013-06-16 18:55:00
2:15 PM,89.6,64.4,43,29.99,10.0,SW,8.1,-,N/A,,Clear,230,2013-06-16 19:15:00
2:35 PM,87.8,64.4,46,29.99,10.0,SW,8.1,-,N/A,,Clear,220,2013-06-16 19:35:00
2:55 PM,87.8,64.4,46,29.99,10.0,SW,3.5,-,N/A,,Clear,220,2013-06-16 19:55:00
3:15 PM,87.8,64.4,46,29.98,10.0,SW,6.9,-,N/A,,Clear,220,2013-06-16 20:15:00
3:35 PM,86.0,64.4,48,29.98,10.0,South,6.9,-,N/A,,Scattered Clouds,190,2013-06-16 20:35:00
4:15 PM,86.0,66.2,51,29.98,10.0,SSW,5.8,-,N/A,,Scattered Clouds,210,2013-06-16 21:15:00
4:35 PM,84.2,64.4,51,29.97,10.0,SSW,8.1,-,N/A,,Partly Cloudy,200,2013-06-16 21:35:00
4:55 PM,86.0,64.4,48,29.96,10.0,South,5.8,-,N/A,,Clear,190,2013-06-16 21:55:00
5:15 PM,84.2,64.4,51,29.96,10.0,South,4.6,-,N/A,,Clear,190,2013-06-16 22:15:00
5:35 PM,84.2,66.2,55,29.95,10.0,South,4.6,-,N/A,,Clear,180,2013-06-16 22:35:00
5:55 PM,84.2,64.4,51,29.95,10.0,South,4.6,-,N/A,,Clear,190,2013-06-16 22:55:00
6:15 PM,84.2,64.4,51,29.95,10.0,South,3.5,-,N/A,,Clear,180,2013-06-16 23:15:00
6:35 PM,82.4,64.4,54,29.96,10.0,South,4.6,-,N/A,,Clear,180,2013-06-16 23:35:00
6:55 PM,82.4,64.4,54,29.96,9.0,South,3.5,-,N/A,,Clear,190,2013-06-16 23:55:00
7:15 PM,82.4,64.4,54,29.97,10.0,South,3.5,-,N/A,,Clear,180,2013-06-17 00:15:00
7:35 PM,82.4,64.4,54,29.97,10.0,South,4.6,-,N/A,,Partly Cloudy,170,2013-06-17 00:35:00
7:55 PM,82.4,62.6,51,29.96,10.0,South,3.5,-,N/A,,Mostly Cloudy,180,2013-06-17 00:55:00
8:35 PM,80.6,62.6,54,29.96,10.0,South,3.5,-,N/A,,Scattered Clouds,170,2013-06-17 01:35:00
8:55 PM,80.6,62.6,54,29.96,10.0,SSE,3.5,-,N/A,,Partly Cloudy,150,2013-06-17 01:55:00
9:15 PM,78.8,62.6,57,29.96,10.0,Calm,Calm,-,N/A,,Clear,0,2013-06-17 02:15:00
9:35 PM,77.0,62.6,61,29.97,10.0,SSE,3.5,-,N/A,,Clear,150,2013-06-17 02:35:00
9:55 PM,78.8,62.6,57,29.96,10.0,South,3.5,-,N/A,,Scattered Clouds,180,2013-06-17 02:55:00
10:15 PM,78.8,62.6,57,29.96,10.0,South,3.5,-,N/A,,Partly Cloudy,170,2013-06-17 03:15:00
10:35 PM,77.0,62.6,61,29.97,10.0,South,3.5,-,N/A,,Clear,170,2013-06-17 03:35:00
10:55 PM,77.0,62.6,61,29.97,10.0,Calm,Calm,-,N/A,,Clear,0,2013-06-17 03:55:00
11:15 PM,75.2,62.6,65,29.97,10.0,Calm,Calm,-,N/A,,Scattered Clouds,0,2013-06-17 04:15:00
11:35 PM,77.0,64.4,65,29.96,10.0,SSE,3.5,-,N/A,,Scattered Clouds,160,2013-06-17 04:35:00
11:56 PM,77.0,64.4,65,29.97,10.0,South,4.6,-,N/A,,Clear,170,2013-06-17 04:56:00